MERAH PUTIH 2

Last updated on Sat Jun 21 2025 00:02:47 GMT+0000 (Coordinated Universal Time)

1 58995U 24035A 25171.52499924 -.00000347 00000+0 00000+0 0 9993 2 58995 0.0114 318.2959 0001246 119.9843 132.6424 1.00272076 4965
UTC large
Height (km)
Speed (km/s)
/
Latitude / Longitude
Inclination (degrees)
Orbital Period (minutes)
Azimuth
Elevation
Range (km)
Doppler Factor

Next 0 passes for location: London (51.5072 / 0.1276)

Sorry there are no passes over London.